When you browse on this site, cookies collect data to enhance your experience and personalize the content and advertising you see.
Visit our Privacy Policy to learn more. By continuing to use the site, you agree to this use of cookies and data.
  • In France
  • List of Countries
  • For 7 days
  • Water Temperature
  • Weather Map
  • Weather Widgets
  • user-avatar
    Login

    Hourly Weather Trencin

    Today, 22 August, Thursday

    Time Temperature Precipitation Wind Pressure Humidity
    00:00 +14°C° 0 mm 2 mps 746 mmHg 94%
    01:00 +14°C° 0 mm 2 mps 746 mmHg 93%
    02:00 +14°C° 0 mm 2 mps 746 mmHg 93%
    03:00 +14°C° 0 mm 2 mps 745 mmHg 93%
    04:00 +14°C° 0 mm 2 mps 745 mmHg 93%
    05:00 +15°C° 0 mm 2 mps 745 mmHg 88%
    06:00 +16°C° 0 mm 2 mps 746 mmHg 83%
    07:00 +17°C° 0 mm 2 mps 746 mmHg 77%
    08:00 +20°C° 0 mm 1 mps 746 mmHg 72%
    09:00 +22°C° 0 mm 1 mps 746 mmHg 67%
    10:00 +24°C° 0 mm 1 mps 746 mmHg 62%
    11:00 +24°C° 0.2 mm 1 mps 746 mmHg 61%
    12:00 +25°C° 0.2 mm 1 mps 746 mmHg 60%
    13:00 +26°C° 0.2 mm 1 mps 745 mmHg 59%
    14:00 +26°C° 0 mm 1 mps 745 mmHg 59%
    15:00 +27°C° 0 mm 1 mps 745 mmHg 59%
    16:00 +25°C° 0 mm 0 mps 745 mmHg 58%
    17:00 +25°C° 0 mm 1 mps 745 mmHg 66%
    18:00 +23°C° 0 mm 1 mps 745 mmHg 73%
    19:00 +21°C° 0 mm 1 mps 744 mmHg 81%
    20:00 +21°C° 0 mm 1 mps 745 mmHg 83%
    21:00 +20°C° 0 mm 1 mps 745 mmHg 86%
    22:00 +20°C° 0 mm 1 mps 745 mmHg 88%
    23:00 +19°C° 0 mm 1 mps 745 mmHg 89%

    Tomorrow, 23 August, Friday

    Time Temperature Precipitation Wind Pressure Humidity
    00:00 +19°C° 0 mm 1 mps 745 mmHg 90%
    01:00 +19°C° 0 mm 1 mps 745 mmHg 90%
    02:00 +18°C° 0 mm 1 mps 745 mmHg 91%
    03:00 +18°C° 0 mm 1 mps 745 mmHg 92%
    04:00 +18°C° 0 mm 1 mps 744 mmHg 92%
    05:00 +19°C° 0 mm 1 mps 745 mmHg 89%
    06:00 +19°C° 0 mm 1 mps 745 mmHg 85%
    07:00 +20°C° 0 mm 1 mps 745 mmHg 81%
    08:00 +22°C° 0 mm 1 mps 745 mmHg 74%
    09:00 +24°C° 0 mm 1 mps 745 mmHg 67%
    10:00 +27°C° 0 mm 1 mps 746 mmHg 60%
    11:00 +28°C° 0 mm 1 mps 745 mmHg 57%
    12:00 +29°C° 0 mm 1 mps 745 mmHg 55%
    13:00 +28°C° 0 mm 0 mps 745 mmHg 52%
    14:00 +27°C° 0 mm 0 mps 744 mmHg 52%
    15:00 +29°C° 0 mm 1 mps 744 mmHg 52%
    16:00 +29°C° 0 mm 1 mps 744 mmHg 52%
    17:00 +27°C° 0 mm 1 mps 744 mmHg 60%
    18:00 +25°C° 0 mm 1 mps 744 mmHg 69%
    19:00 +23°C° 0 mm 1 mps 744 mmHg 77%
    20:00 +22°C° 0.1 mm 1 mps 744 mmHg 81%
    21:00 +22°C° 0.1 mm 1 mps 744 mmHg 84%
    22:00 +21°C° 0.1 mm 1 mps 744 mmHg 88%
    23:00 +21°C° 0.2 mm 1 mps 744 mmHg 90%

    Day after tomorrow, 24 August, Saturday

    Time Temperature Precipitation Wind Pressure Humidity
    00:00 +20°C° 0.2 mm 1 mps 743 mmHg 91%
    01:00 +20°C° 0.2 mm 1 mps 743 mmHg 92%
    02:00 +20°C° 0 mm 1 mps 743 mmHg 93%
    03:00 +19°C° 0 mm 1 mps 743 mmHg 93%
    04:00 +19°C° 0 mm 1 mps 743 mmHg 93%
    05:00 +20°C° 0 mm 1 mps 743 mmHg 89%
    06:00 +22°C° 0 mm 1 mps 743 mmHg 85%
    07:00 +23°C° 0 mm 1 mps 743 mmHg 81%
    08:00 +25°C° 0 mm 1 mps 743 mmHg 72%
    09:00 +28°C° 0 mm 1 mps 743 mmHg 64%
    10:00 +30°C° 0 mm 1 mps 743 mmHg 55%
    11:00 +31°C° 0 mm 1 mps 743 mmHg 51%
    12:00 +32°C° 0 mm 1 mps 743 mmHg 46%
    13:00 +33°C° 0 mm 1 mps 743 mmHg 42%
    14:00 +33°C° 0 mm 1 mps 742 mmHg 42%
    15:00 +32°C° 0 mm 1 mps 742 mmHg 42%
    16:00 +32°C° 0 mm 1 mps 742 mmHg 42%
    17:00 +30°C° 0 mm 1 mps 742 mmHg 49%
    18:00 +28°C° 0 mm 1 mps 741 mmHg 57%
    19:00 +25°C° 0 mm 1 mps 741 mmHg 64%
    20:00 +25°C° 0.6 mm 1 mps 741 mmHg 69%
    21:00 +24°C° 0.6 mm 1 mps 742 mmHg 73%
    22:00 +23°C° 0.6 mm 1 mps 742 mmHg 78%
    23:00 +23°C° 0.3 mm 1 mps 742 mmHg 80%

    25 August, Sunday

    Time Temperature Precipitation Wind Pressure Humidity
    00:00 +22°C° 0.3 mm 1 mps 741 mmHg 82%
    01:00 +22°C° 0.3 mm 1 mps 741 mmHg 84%
    02:00 +21°C° 0.4 mm 1 mps 741 mmHg 85%
    03:00 +21°C° 0.4 mm 1 mps 741 mmHg 87%
    04:00 +21°C° 0.4 mm 1 mps 741 mmHg 88%
    05:00 +22°C° 0.3 mm 1 mps 741 mmHg 86%
    06:00 +22°C° 0.3 mm 1 mps 741 mmHg 84%
    07:00 +23°C° 0.3 mm 1 mps 741 mmHg 82%
    08:00 +26°C° 0 mm 1 mps 742 mmHg 73%
    09:00 +28°C° 0 mm 1 mps 742 mmHg 63%
    10:00 +30°C° 0 mm 1 mps 742 mmHg 53%
    11:00 +31°C° 0 mm 1 mps 742 mmHg 49%
    12:00 +32°C° 0 mm 1 mps 742 mmHg 45%
    13:00 +33°C° 0 mm 1 mps 742 mmHg 40%
    14:00 +33°C° 0 mm 1 mps 741 mmHg 42%
    15:00 +32°C° 0 mm 1 mps 741 mmHg 44%
    16:00 +32°C° 0 mm 1 mps 741 mmHg 46%
    17:00 +30°C° 0.2 mm 1 mps 741 mmHg 53%
    18:00 +28°C° 0.2 mm 1 mps 741 mmHg 60%
    19:00 +26°C° 0.2 mm 1 mps 741 mmHg 67%
    20:00 +25°C° 0.4 mm 1 mps 741 mmHg 71%
    21:00 +24°C° 0.4 mm 1 mps 741 mmHg 75%
    22:00 +23°C° 0.4 mm 1 mps 741 mmHg 79%
    23:00 +22°C° 0.2 mm 1 mps 741 mmHg 81%

    26 August, Monday

    Time Temperature Precipitation Wind Pressure Humidity
    00:00 +22°C° 0.2 mm 1 mps 741 mmHg 82%
    01:00 +22°C° 0.2 mm 1 mps 741 mmHg 84%
    02:00 +22°C° 0 mm 1 mps 741 mmHg 84%
    03:00 +21°C° 0 mm 1 mps 741 mmHg 84%
    04:00 +21°C° 0 mm 1 mps 741 mmHg 85%
    05:00 +22°C° 0 mm 1 mps 741 mmHg 82%
    06:00 +23°C° 0 mm 1 mps 741 mmHg 80%
    07:00 +24°C° 0 mm 1 mps 741 mmHg 77%
    08:00 +27°C° 0 mm 1 mps 741 mmHg 68%
    09:00 +29°C° 0 mm 1 mps 741 mmHg 59%
    10:00 +31°C° 0 mm 1 mps 742 mmHg 49%
    11:00 +32°C° 0 mm 1 mps 741 mmHg 45%
    12:00 +33°C° 0 mm 1 mps 741 mmHg 41%
    13:00 +34°C° 0 mm 1 mps 741 mmHg 37%
    14:00 +33°C° 0 mm 1 mps 741 mmHg 39%
    15:00 +33°C° 0 mm 1 mps 740 mmHg 41%
    16:00 +32°C° 0 mm 1 mps 740 mmHg 43%
    17:00 +30°C° 0.3 mm 1 mps 740 mmHg 51%
    18:00 +27°C° 0.3 mm 1 mps 740 mmHg 59%
    19:00 +25°C° 0.3 mm 2 mps 740 mmHg 68%
    20:00 +24°C° 0.4 mm 1 mps 740 mmHg 71%
    21:00 +23°C° 0.4 mm 1 mps 740 mmHg 73%
    22:00 +22°C° 0.4 mm 1 mps 740 mmHg 76%
    23:00 +22°C° 0.1 mm 1 mps 740 mmHg 77%

    27 August, Tuesday

    Time Temperature Precipitation Wind Pressure Humidity
    00:00 +22°C° 0.1 mm 1 mps 740 mmHg 77%
    01:00 +21°C° 0.1 mm 1 mps 740 mmHg 78%
    02:00 +21°C° 0 mm 1 mps 740 mmHg 79%
    03:00 +21°C° 0 mm 1 mps 739 mmHg 80%
    04:00 +21°C° 0 mm 1 mps 739 mmHg 81%
    05:00 +22°C° 0 mm 1 mps 739 mmHg 79%
    06:00 +23°C° 0 mm 1 mps 740 mmHg 77%
    07:00 +24°C° 0 mm 1 mps 740 mmHg 75%
    08:00 +27°C° 0 mm 1 mps 740 mmHg 66%
    09:00 +29°C° 0 mm 1 mps 740 mmHg 56%
    10:00 +32°C° 0 mm 1 mps 740 mmHg 47%
    11:00 +32°C° 0 mm 1 mps 740 mmHg 43%
    12:00 +33°C° 0 mm 1 mps 740 mmHg 40%
    13:00 +34°C° 0 mm 1 mps 740 mmHg 36%
    14:00 +33°C° 0 mm 1 mps 739 mmHg 38%
    15:00 +33°C° 0 mm 1 mps 739 mmHg 40%
    16:00 +32°C° 0 mm 1 mps 739 mmHg 42%
    17:00 +30°C° 0 mm 1 mps 739 mmHg 48%
    18:00 +28°C° 0 mm 1 mps 739 mmHg 53%
    19:00 +26°C° 0 mm 1 mps 739 mmHg 59%
    20:00 +25°C° 0.1 mm 1 mps 739 mmHg 64%
    21:00 +24°C° 0.1 mm 1 mps 739 mmHg 68%
    22:00 +23°C° 0.1 mm 1 mps 739 mmHg 73%
    23:00 +23°C° 0.2 mm 1 mps 739 mmHg 75%
    Show more